Location: Burleson Fire Department Station 2
(32.5391°N, 97.3075°W)
Time: 00:25:55
(UTC+00:00)

NOAA 15 - Pass Details

Date: 22 December 2025
Orbit: 793 x 810 km, 98.5° (Epoch: 20 January)

Event Time Altitude Azimuth Distance (km) Brightness Sun altitude
Rises 02:03:05 0° 200° (SSW) 3,309 8.1 -31.8°
Reaches altitude 10° 02:05:56 10° 215° (SW) 2,380 7.5 -32.4°
Maximum altitude 02:09:55 22° 264° (W) 1,703 6.9 -33.2°
Drops below altitude 10° 02:13:56 10° 314° (NW) 2,384 7.4 -34.0°
Sets 02:16:48 0° 330° (NNW) 3,315 8.1 -34.6°
